{"data":{"norad_id":58723,"epoch":"2026-05-24T23:09:47.073888Z","epoch_age_seconds":77741,"freshness":"FRESH","line1":"1 58723U 24002U   26144.96512817 -.00002244  00000+0 -63660-4 0  9997","line2":"2 58723  53.1593 235.6212 0000776 101.2285 258.8803 15.30201732133693","mean_motion":15.30201732,"eccentricity":7.76e-5,"inclination_deg":53.1593,"raan_deg":235.6212,"arg_perigee_deg":101.2285,"mean_anomaly_deg":258.8803,"bstar":-6.366e-5,"rev_number":13369,"period_min":94.105239190776,"perigee_km":474.67807826511,"apogee_km":475.74171770368,"semimajor_km":6853.3468979844,"source":"CELESTRAK","updated_at":"2026-05-25T13:38:18.718503Z"}}